Change the Weather History Date:

Thursday, April 3, 2014

  Actual Average (KLUK) Record (KLUK)
Temperature  
Mean Temperature 58 °F -  
Max Temperature 62 °F 61 °F 82 °F (2012)
Min Temperature 53 °F 40 °F 24 °F (1972)
Degree Days  
Heating Degree Days 8    
Growing Degree Days 8 (Base 50)    
Moisture  
Dew Point 56 °F    
Average Humidity 98    
Maximum Humidity 100    
Minimum Humidity 88    
Precipitation  
Precipitation 0.95 in - - ()
Sea Level Pressure  
Sea Level Pressure 29.87 in    
Wind  
Wind Speed 5 mph (SSE)    
Max Wind Speed 14 mph    
Max Gust Speed 17 mph    
Visibility 7 miles    
Events Rain    
Averages and records for this station are not official NWS values.
T = Trace of Precipitation, MM = Missing Value Source: NWS Daily Summary

Daily Weather History Graph

Daily Weather History Graph

Search for Another Location

Airport or City:

Trip Planner

Search our weather history database for the weather conditions in past years. The results will help you decide how hot, cold, wet, or windy it might be!

Date:

Astronomy

Apr. 03, 2014 Rise Set
Actual Time 7:18 AM EDT 8:02 PM EDT
Civil Twilight 6:51 AM EDT 8:29 PM EDT
Nautical Twilight 6:19 AM EDT 9:01 PM EDT
Astronomical Twilight 5:46 AM EDT 9:34 PM EDT
Moon 9:48 AM EDT (4/3) No Moon Set
Length of Visible Light 13h 38m
Length of Day
12h 44m
Waxing Crescent, 17% of the Moon is Illuminated
Apr 3
Waxing Crescent
Apr 7
First Quarter
Apr 15
Full
Apr 22
Last Quarter
Apr 29
New

Hourly Weather History & Observations

Time (EDT) Temp. Dew Point Humidity Pressure Visibility Wind Dir Wind Speed Gust Speed Precip Events Conditions
12:15 AM 53.6 °F 53.6 °F 100% 30.03 in 10.0 mi NNE 3.5 mph - N/A   Mostly Cloudy
12:35 AM 53.6 °F 53.6 °F 100% 30.04 in 7.0 mi NE 3.5 mph - N/A   Mostly Cloudy
12:55 AM 53.6 °F 53.6 °F 100% 30.02 in 7.0 mi ESE 3.5 mph - N/A   Mostly Cloudy
1:15 AM 53.6 °F 53.6 °F 100% 30.03 in 7.0 mi Calm Calm - N/A Rain Light Rain
1:35 AM 53.6 °F 53.6 °F 100% 30.03 in 7.0 mi Calm Calm - N/A Rain Rain
1:55 AM 53.6 °F 53.6 °F 100% 30.03 in 5.0 mi Calm Calm - 0.01 in Rain Light Rain
2:15 AM 53.6 °F 53.6 °F 100% 30.04 in 4.0 mi Calm Calm - 0.03 in Rain Rain
2:35 AM 53.6 °F 53.6 °F 100% 29.98 in 5.0 mi SSE 10.4 mph - 0.07 in Rain Rain
2:55 AM 53.6 °F 53.6 °F 100% 29.97 in 10.0 mi SE 4.6 mph 17.3 mph 0.09 in Rain Light Rain
3:15 AM 53.6 °F 53.6 °F 100% 29.99 in 10.0 mi Calm Calm - 0.01 in Rain Light Rain
3:35 AM 53.6 °F 53.6 °F 100% 30.00 in 7.0 mi WNW 8.1 mph - 0.03 in Rain Rain
3:55 AM 53.6 °F 53.6 °F 100% 29.98 in 7.0 mi SE 3.5 mph - 0.04 in Rain Rain
4:15 AM 53.6 °F 51.8 °F 94% 29.97 in 2.5 mi NE 4.6 mph - N/A Rain Light Rain
4:35 AM 53.6 °F 53.6 °F 100% 29.97 in 7.0 mi NE 8.1 mph - N/A   Overcast
4:55 AM 53.6 °F 53.6 °F 100% 29.97 in 7.0 mi NE 4.6 mph - N/A   Overcast
5:15 AM 53.6 °F 53.6 °F 100% 29.97 in 5.0 mi East 4.6 mph - N/A   Light Drizzle
5:35 AM 53.6 °F 53.6 °F 100% 29.96 in 7.0 mi ESE 8.1 mph - N/A   Overcast
5:55 AM 53.6 °F 53.6 °F 100% 29.96 in 10.0 mi East 5.8 mph - N/A   Overcast
6:15 AM 53.6 °F 51.8 °F 94% 29.95 in 7.0 mi East 5.8 mph - N/A   Overcast
6:35 AM 53.6 °F 53.6 °F 100% 29.96 in 7.0 mi ESE 5.8 mph - N/A   Overcast
6:55 AM 53.6 °F 53.6 °F 100% 29.96 in 7.0 mi East 4.6 mph - N/A   Overcast
7:15 AM 53.6 °F 53.6 °F 100% 29.98 in 7.0 mi Calm Calm - N/A Rain Light Rain
7:35 AM 53.6 °F 53.6 °F 100% 29.98 in 5.0 mi Calm Calm - 0.02 in Rain Rain
7:55 AM 53.6 °F 53.6 °F 100% 29.96 in 5.0 mi East 6.9 mph - 0.05 in Rain Rain
8:15 AM 53.6 °F 53.6 °F 100% 29.95 in 5.0 mi ESE 9.2 mph - 0.01 in Rain Light Rain
8:35 AM 53.6 °F 53.6 °F 100% 29.97 in 7.0 mi SSE 6.9 mph - 0.03 in Rain Rain
8:55 AM 53.6 °F 53.6 °F 100% 29.97 in 4.0 mi SE 4.6 mph - 0.09 in Rain Rain
9:15 AM 53.6 °F 53.6 °F 100% 29.90 in 4.0 mi East 10.4 mph - 0.06 in Rain Rain
9:35 AM 53.6 °F 53.6 °F 100% 29.90 in 7.0 mi SE 3.5 mph - 0.06 in Rain Light Rain
9:55 AM 53.6 °F 53.6 °F 100% 29.98 in 7.0 mi West 5.8 mph - 0.08 in Rain Heavy Rain
10:15 AM 53.6 °F 53.6 °F 100% 29.88 in 3.0 mi East 11.5 mph - 0.06 in Rain Rain
10:36 AM 53.6 °F 53.6 °F 100% 29.91 in 5.0 mi ENE 3.5 mph - 0.08 in Rain Rain
10:55 AM 53.6 °F 53.6 °F 100% 29.90 in 5.0 mi SSE 5.8 mph - 0.10 in Rain Light Rain
11:15 AM 53.6 °F 53.6 °F 100% 29.89 in 5.0 mi ESE 6.9 mph - 0.02 in Rain Light Rain
11:36 AM 53.6 °F 53.6 °F 100% 29.88 in 7.0 mi SE 6.9 mph - 0.02 in Rain Light Rain
11:55 AM 53.6 °F 53.6 °F 100% 29.87 in 5.0 mi SE 8.1 mph - 0.05 in Rain Rain
12:15 PM 53.6 °F 53.6 °F 100% 29.83 in 7.0 mi SE 10.4 mph 16.1 mph 0.01 in Rain Light Rain
12:36 PM 53.6 °F 53.6 °F 100% 29.81 in 7.0 mi SE 6.9 mph - 0.02 in Rain Light Rain
12:55 PM 55.4 °F 53.6 °F 94% 29.80 in 0.8 mi Calm Calm - 0.11 in Rain Rain
1:15 PM 55.4 °F 55.4 °F 100% 29.78 in 10.0 mi SE 9.2 mph - N/A Rain Light Rain
1:36 PM 55.4 °F 55.4 °F 100% 29.83 in 4.0 mi West 5.8 mph - 0.05 in Rain Heavy Rain
1:55 PM 55.4 °F 55.4 °F 100% 29.83 in 3.0 mi NW 5.8 mph - 0.20 in Rain Heavy Rain
2:15 PM 55.4 °F 55.4 °F 100% 29.84 in 3.0 mi Calm Calm - 0.05 in Rain Heavy Rain
2:36 PM 55.4 °F 55.4 °F 100% 29.82 in 4.0 mi SE 3.5 mph - 0.09 in Rain Rain
2:55 PM 55.4 °F 55.4 °F 100% 29.80 in 2.5 mi SSE 3.5 mph - 0.11 in Rain Light Rain
3:15 PM 57.2 °F 55.4 °F 94% 29.77 in 4.0 mi SSE 5.8 mph - 0.01 in Rain Light Rain
3:36 PM 59.0 °F 59.0 °F 100% 29.75 in 7.0 mi SSE 4.6 mph - 0.02 in   Mostly Cloudy
3:55 PM 59.0 °F 59.0 °F 100% 29.74 in 10.0 mi South 6.9 mph - 0.02 in   Clear
4:15 PM 60.8 °F 60.8 °F 100% 29.73 in 10.0 mi South 8.1 mph - N/A   Scattered Clouds
4:36 PM 60.8 °F 60.8 °F 100% 29.72 in 10.0 mi SSW 10.4 mph - N/A   Scattered Clouds
4:55 PM 62.6 °F 60.8 °F 94% 29.71 in 10.0 mi SSW 10.4 mph 17.3 mph N/A   Clear
5:15 PM 62.6 °F 60.8 °F 94% 29.70 in 10.0 mi SSW 10.4 mph 17.3 mph N/A   Clear
5:35 PM 62.6 °F 60.8 °F 94% 29.70 in 10.0 mi SW 10.4 mph - N/A   Clear
5:55 PM 62.6 °F 60.8 °F 94% 29.70 in 10.0 mi WSW 9.2 mph - N/A   Clear
6:15 PM 62.6 °F 60.8 °F 94% 29.71 in 10.0 mi SW 8.1 mph - N/A   Clear
6:55 PM 62.6 °F 60.8 °F 94% 29.71 in 10.0 mi SSW 11.5 mph 16.1 mph N/A   Clear
7:15 PM 62.6 °F 60.8 °F 94% 29.73 in 10.0 mi SW 9.2 mph 16.1 mph N/A   Clear
7:35 PM 62.6 °F 60.8 °F 94% 29.75 in 10.0 mi SW 9.2 mph - N/A   Clear
7:55 PM 62.6 °F 60.8 °F 94% 29.78 in 10.0 mi WSW 10.4 mph - N/A   Clear
8:15 PM 62.6 °F 60.8 °F 94% 29.81 in 10.0 mi West 13.8 mph 17.3 mph N/A   Mostly Cloudy
8:35 PM 62.6 °F 60.8 °F 94% 29.82 in 10.0 mi West 8.1 mph - N/A   Overcast
8:55 PM 62.6 °F 59.0 °F 88% 29.80 in 10.0 mi WSW 9.2 mph 16.1 mph N/A   Overcast
9:15 PM 62.6 °F 59.0 °F 88% 29.80 in 10.0 mi WSW 6.9 mph - N/A   Mostly Cloudy
9:35 PM 62.6 °F 59.0 °F 88% 29.78 in 10.0 mi West 5.8 mph - N/A Rain Light Rain
9:55 PM 62.6 °F 59.0 °F 88% 29.77 in 10.0 mi Calm Calm - N/A   Mostly Cloudy
10:15 PM 60.8 °F 59.0 °F 94% 29.75 in 10.0 mi Calm Calm - N/A   Scattered Clouds
10:35 PM 60.8 °F 59.0 °F 94% 29.77 in 10.0 mi South 4.6 mph - N/A   Clear
11:55 PM 60.8 °F 59.0 °F 94% 29.75 in 10.0 mi SSW 3.5 mph - N/A   Overcast